Flag for U.S.A. Weather past 2 weeks in Peoria, Illinois, U.S.A.

Now
16 °F

Clear.


Feels Like: 4 °F
Forecast: 11 / 28 °F
Wind: 9 mph from Northwest

Location: Greater Peoria Regional Airport

Current Time: Mar 4, 2015 at 5:19:47 AM

Latest Report: Mar 4, 2015 at 4:54 AM


Visibility: 10 mi

Pressure: 30.11 "Hg

Humidity: 65%

Dew point: 6 °F

Location of PeoriaLocation

Historic Weather in Peoria — Graph

°F

Peoria temperature yesterday

Maximum temperature yesterday: 39 °F (at 2:54 PM)
Minimum temperature yesterday: 28 °F (at 12:54 AM)
Average temperature yesterday: 33 °F

Past Weeks' High & Low Weather Summary

 TemperatureHumidityPressure
High39 °F (Mar 3, 2:54 PM)92% (Mar 3, 10:01 AM)30.82 "Hg (Mar 3, 10:01 AM)
Low-7 °F (Feb 27, 6:54 AM)38% (Feb 19, 3:54 PM)29.73 "Hg (Mar 3, 12:01 PM)
Average18 °F65%30.28 "Hg
* Reported Feb 17 3:54 AM — Mar 4 3:54 AM, Peoria, Weather by CustomWeather, © 2015

Note: Actual official high and low records may vary slightly from our data, if they occured in-between our weather recording intervals... More about our weather records

Advertising

Peoria weather history for previous 24 hours

 ConditionsComfort  
Time TempWeatherWind HumidityBarometerVisibility
3:54 AM
Wed, Mar 4
18 °FClear.12 mph68%30.09 "Hg10 mi
2:54 AM21 °FClear.13 mph65%30.04 "Hg10 mi
1:54 AM25 °FClear.10 mph72%29.99 "Hg10 mi
12:54 AM29 °FOvercast.10 mph75%29.98 "Hg10 mi
11:54 PM
Tue, Mar 3
30 °FOvercast.8 mph75%29.95 "Hg10 mi
10:54 PM34 °FPassing clouds.8 mph73%29.94 "Hg9 mi
9:54 PM34 °FClear.7 mph73%29.92 "Hg9 mi
8:54 PM35 °FClear.8 mph70%29.93 "Hg10 mi
7:54 PM36 °FClear.8 mph70%29.91 "Hg10 mi
6:54 PM37 °FMostly cloudy.8 mph76%29.88 "Hg10 mi
5:54 PM37 °FOvercast.8 mph76%29.82 "Hg10 mi
4:54 PM38 °FOvercast.10 mph79%29.81 "Hg10 mi
3:54 PM38 °FOvercast.12 mph83%29.79 "Hg10 mi
2:54 PM39 °FLow clouds.15 mph82%29.76 "Hg9 mi
1:54 PM38 °FFog.12 mph90%29.73 "Hg6 mi
12:54 PM36 °FFog.12 mph89%29.73 "Hg1 mi
12:01 PM35 °FFog.15 mph88%29.73 "Hg1 mi
11:03 AM34 °FFog.14 mph88%29.74 "Hg1 mi
10:54 AM34 °FFog.16 mph88%29.76 "Hg1 mi
10:01 AM33 °FFog.16 mph92%29.74 "Hg1 mi
8:54 AM32 °FLight freezing rain. Ice fog.20 mph88%29.78 "Hg1 mi
7:54 AM30 °FLight freezing rain. Ice fog.17 mph89%29.83 "Hg2 mi
7:04 AM30 °FLight freezing rain. Ice fog.16 mph89%29.89 "Hg2 mi
6:54 AM30 °FIce fog.15 mph85%29.89 "Hg3 mi
5:54 AM30 °FLight freezing rain. Mostly cloudy.14 mph82%29.93 "Hg2 mi
Weather by CustomWeather, © 2015

See weather overviewHow to use our weather pages